Torna al catalogo

FENGYUN 1C DEB

AttivoSSO
NORAD 37914·DEBRIS·🇨🇳 China

Lanciato May 10, 1999 da Taiyuan Satellite Launch Center

Loading…

Prossimi Passaggi (prossime 24 ore)

TLE

ObsoletoSource: Space-Track

Epoca: Aug 27, 2026, 05:44 UTC

1 37914U 99025ENP 26239.23928900  .00001340  00000-0  67473-3 0  9992
2 37914  99.2174 246.1466 0066923 349.0893  10.8825 14.17050628658343

Traccia FENGYUN 1C DEB in tempo reale con AllMySat

Download on the App Store